Regional Weather Roundup
Issued by NWS

Home | Current Version | Previous Version | Graphics & Text | Print | Product List | Glossary On
Versions: 1 2 3 4 5 6 7 8 9 10 11 12 13 14 15 16 17 18 19 20 21 22 23 24 25 26 27
000
ASUS45 KBOU 210307
RWRCO

WEATHER ROUNDUP FOR COLORADO
NATIONAL WEATHER SERVICE DENVER/BOULDER CO
900 PM MDT WED SEP 20 2017

NOTE: "FAIR" INDICATES FEW OR NO CLOUDS BELOW 12000 FEET WITH NO
SIGNIFICANT WEATHER AND/OR OBSTRUCTIONS TO VISIBILITY.

COZ001>005-013-030-031-210400-
...NORTHWEST COLORADO...

CITY           SKY/WX    TMP DP  RH WIND       PRES   REMARKS
CRAIG          FAIR      54  36  50 CALM      29.86S
HAYDEN         FAIR      62  33  33 SE6       29.91R
MEEKER         FAIR      52  36  54 NE3       29.88R
RABBIT EARS PA FAIR      48  28  46 SW10G25   30.16F
STEAMBOAT SPGS FAIR      56  35  46 E6        29.92S
WALDEN         FAIR      43  30  61 SE9       30.02R
$$

COZ006>008-011-210400-
...WEST CENTRAL VALLEYS...

CITY           SKY/WX    TMP DP  RH WIND       PRES   REMARKS
GRAND JUNCTION FAIR      68  30  24 SE8       29.79R
MONTROSE       FAIR      68  29  23 S9        29.93R
EAGLE          FAIR      62  28  27 S3        29.95S
RIFLE          FAIR      70  26  19 S8        29.85R
DELTA          FAIR      69  30  23 CALM      29.87R
NUCLA          FAIR      68  25  19 S9        29.95S
$$

COZ017>023-064>068-210400-
...SOUTHWEST COLORADO...

CITY           SKY/WX    TMP DP  RH WIND       PRES   REMARKS
DURANGO        FAIR      59  31  34 N9        30.03R
CORTEZ         FAIR      56  34  43 CALM      29.95R
PAGOSA SPRINGS FAIR      55  26  32 CALM      30.11R
TELLURIDE      FAIR      60  23  24 S9G17     30.18S
WOLF CREEK PAS FAIR      43  21  42 S22G31    30.38S
$$

COZ009-010-012-014-032>034-037-058>063-210400-
...CENTRAL COLORADO...

CITY           SKY/WX    TMP DP  RH WIND       PRES   REMARKS
ASPEN          FAIR      55  29  36 S6        30.03R
BUENA VISTA    FAIR      59  22  24 CALM      30.04R
COPPER MTN     FAIR      52  10  19 S15G25    30.30S
BERTHOUD PASS  FAIR      41  32  70 SW10G20   30.31S
COTTONWOOD PAS FAIR      61  19  20 SW7       30.18R
GUNNISON       FAIR      56  29  35 CALM      30.06R
KREMMLING      FAIR      70  23  17 SW20G28   29.97S
LEADVILLE      FAIR      49  13  23 S6        30.15S
MONARCH PASS   FAIR      45  21  39 SW29G37   30.42S
SALIDA         FAIR      65  25  21 SW9       30.10R
SUNLIGHT       FAIR      45  23  42 SW20G33   30.21F
WILKERSON PASS FAIR      45  23  42 S7        30.28R
$$

COZ069>075-210400-
...SAN LUIS VALLEY/SANGRE DE CRISTO MOUNTAINS...

CITY           SKY/WX    TMP DP  RH WIND       PRES   REMARKS
ALAMOSA        FAIR      52  28  39 SW9       30.09R
DEL NORTE      FAIR      52  28  39 W7        30.12R
LA VETA PASS   FAIR      54  19  26 MISG      30.32S
SAGUACHE       FAIR      61  27  27 NE3       30.09R
$$

COZ035-036-038>040-210400-
...NORTHERN COLORADO FRONT RANGE...

CITY           SKY/WX    TMP DP  RH WIND       PRES   REMARKS
DENVER INTL AP FAIR      62  29  28 S13       29.86R
DMNS CITY PARK   N/A     63  34  34 E10       29.85S
AURORA         CLEAR     65  30  26 S23G29    29.87S
FRONT RANGE AP PTCLDY    63  30  29 SE12G17   29.89R
ERIE MUNI ARPT FAIR      58  35  42 S6        29.89R
BOULDER MUN AP FAIR      61  34  36 SW5       29.84R
CENTENNIAL     FAIR      64  30  27 E9        29.90R
BROOMFIELD     CLEAR     61  32  33 W3        29.88R
FORT COLLINS   FAIR      60  40  47 N8        29.83R
LONGMONT       NOT AVBL
$$

COZ041-046-047-076>085-087-088-210400-
...PIKES PEAK/PALMER DIVIDE AND SOUTHERN FOOTHILLS...

CITY           SKY/WX    TMP DP  RH WIND       PRES   REMARKS
COLO. SPRINGS  FAIR      59  31  34 E6        29.99R
A. F. ACADEMY  FAIR      58  28  31 SE7       29.99R
SCHRIEVER AFB  FAIR      57  29  34 MISG      29.99S
CHEYENNE MTN   FAIR      61  28  28 S10       29.97R
ELLICOTT         N/A    N/A N/A N/A SE14      29.95S
FALCON         FAIR      53  27  36 S5        30.03R
FORT CARSON    FAIR      60  31  34 CALM      29.95R
LIMON          FAIR      57  31  37 SE12      29.93R
MONUMENT HILL  FAIR      55  30  38 S20G26    30.00R
CANON CITY     CLEAR     61  34  36 SW6       29.92R
WALSENBURG     FAIR      61  32  33 CALM      29.94S
TRINIDAD       FAIR      68  33  27 SW13      29.95R
$$

COZ042>045-048>051-090-091-210400-
...NORTHEAST COLORADO...

CITY           SKY/WX    TMP DP  RH WIND       PRES   REMARKS
GREELEY ARPT   FAIR      62  34  35 SE14      29.83R
AKRON          FAIR      57  28  33 SE12      29.89S
BURLINGTON     FAIR      60  36  40 SE12      29.92R
WRAY           FAIR      61  32  33 SE9       29.89S
YUMA           FAIR      55  19  24 SE7       29.89S
STERLING       FAIR      63  34  34 S10       29.85R
HOLYOKE        NOT AVBL
FORT MORGAN    FAIR      62  28  27 SE12G18   29.88R
$$

COZ086-089-092>099-210400-
...SOUTHEAST COLORADO...

CITY           SKY/WX    TMP DP  RH WIND       PRES   REMARKS
PUEBLO         FAIR      66  36  32 NE8       29.84R
LA JUNTA       FAIR      65  38  36 E13       29.86R
LAMAR          FAIR      64  38  38 SE9       29.87R
SPRINGFIELD      N/A     55  43  63 S10       29.93R
$$




USA.gov is the U.S. government's official web portal to all federal, state and local government web resources and services.